Flag for Germany Weather past 2 weeks in Fürstenwalde/Spree, Brandenburg, Germany

Now
72 °F

Passing clouds.


Feels Like: 77 °F
Forecast: 61 / 86 °F
Wind: 1 mph from North

Location: Lindenberg

Current Time: Aug 2, 2015 at 9:25:48 PM

Latest Report: Aug 2, 2015 at 9:00 PM


Visibility: 22 mi

Pressure: 30.06 "Hg

Humidity: 46%

Dew point: 50 °F

Location of Fürstenwalde/SpreeLocation

Historic Weather in Fürstenwalde/Spree — Graph

°F

Fürstenwalde/Spree temperature yesterday

Maximum temperature yesterday: 78 °F (at 5:00 PM)
Minimum temperature yesterday: 51 °F (at 3:00 AM)
Average temperature yesterday: 66 °F

Past Weeks' High & Low Weather Summary

 TemperatureHumidityPressure
High85 °F (Aug 2, 5:00 PM)96% (Jul 21, 8:00 AM)30.10 "Hg (Jul 21, 8:00 AM)
Low51 °F (Aug 1, 3:00 AM)24% (Aug 2, 3:00 PM)29.56 "Hg (Jul 27, 3:00 PM)
Average66 °F63%29.85 "Hg
* Reported Jul 18 8:00 PM — Aug 2 8:00 PM, Fürstenwalde/Spree, Weather by CustomWeather, © 2015

Note: Actual official high and low records may vary slightly from our data, if they occured in-between our weather recording intervals... More about our weather records

Advertising

Fürstenwalde/Spree weather history for previous 24 hours

 ConditionsComfort  
Time TempWeatherWind HumidityBarometerVisibility
8:00 PM
Sun, Aug 2
78 °FScattered clouds.2 mph34%30.05 "Hg22 mi
7:00 PM84 °FScattered clouds.3 mph25%30.04 "Hg22 mi
6:00 PM85 °FPartly sunny.2 mph25%30.04 "Hg22 mi
5:00 PM85 °FPartly sunny.2 mph25%30.05 "Hg22 mi
4:00 PM85 °FScattered clouds.2 mph25%30.05 "Hg19 mi
3:00 PM84 °FScattered clouds.2 mph24%30.06 "Hg19 mi
2:00 PM82 °FScattered clouds.3 mph25%30.07 "Hg19 mi
1:00 PM82 °FPartly sunny.2 mph28%30.07 "Hg19 mi
12:00 PM79 °FPartly sunny.1 mph33%30.07 "Hg19 mi
11:00 AM78 °FScattered clouds.1 mph35%30.07 "Hg16 mi
10:00 AM74 °FScattered clouds.1 mph47%30.06 "Hg16 mi
9:00 AM68 °FScattered clouds.1 mph51%30.06 "Hg16 mi
8:00 AM64 °FScattered clouds.1 mph65%30.05 "Hg16 mi
7:00 AM59 °FPartly sunny.2 mph72%30.04 "Hg19 mi
6:00 AM57 °FPartly sunny.3 mph73%30.03 "Hg25 mi
4:00 AM62 °FPassing clouds.3 mph59%30.02 "Hg25 mi
1:00 AM66 °FPassing clouds.5 mph49%30.01 "Hg31 mi
11:00 PM
Sat, Aug 1
68 °FPassing clouds.3 mph45%30.01 "Hg31 mi
10:00 PM70 °FPassing clouds.3 mph43%30.01 "Hg31 mi
9:00 PM71 °FPassing clouds.3 mph42%29.99 "Hg31 mi
Weather by CustomWeather, © 2015

See weather overviewHow to use our weather pages